CZ-4B DEB

Satellite information

Favourite Embed

Satellite Type and Status

DEBRISIN ORBIT

Key statistics

Satellite CZ-4B DEB at a glance.

Uptime

2388

Days in orbit

Revolutions

≈ 14.4

Per day

Orbit

SSO

Sun Synchronous Orbit

Inclination

99.4

Latest

Satellite identification and parameters

Extended collection of information and parameters for CZ-4B DEB.

Object identification

Identified? True

Debris? True

Object name: CZ-4B DEB

International designator: 2018-081Q

Object number (NORAD): 57397

Object ID (CCSDS): 57397

Country: PEOPLES REPUBLIC OF CHINA (PRC)

Current information (Y/N): Y

RCS size: SMALL

Orbital parameters

Period: 100.123 minutes

Inclination: 99.3902 deg

SMA: 7142.5 km

Apoapsis: 906.28 km

Periapsis: 622.45 km

RAAN: 10.0878 deg

Eccentricy: 0.0198691

Argument of periapsis: 346.9461 deg

Mean anomaly: 12.6623 deg

Mean motion: 14.38226768 rev/day

Mean motion (dot): 0.00002402 rev/day2

B* drag term: 0.00064441 1/REarth

Two-line elements (TLE)

Creation date: May 6, 2025, 3:54 a.m.

Reference frame: TEME

Reference center: EARTH

Epoch: May 5, 2025, 10:58 a.m. UTC

TLE line 0: 0 CZ-4B DEB

TLE line 1: 1 57397U 18081Q 25125.45761349 .00002402 00000-0 64441-3 0 9993

TLE line 2: 2 57397 99.3902 10.0878 0198691 346.9461 12.6623 14.38226768108350

Live tracking on map

Real-time ground track for satellite CZ-4B DEB.

In-orbit conjunctions

A list of the most updated potential collisions computed for object CZ-4B DEB.

Target Orbit TCA Probability of collision Miss distance Type
DMSP 5D-2 F13 DEB SSO 2024-11-15 18:26:30 0.0001895365 58.0 (m) DEBRIS
FENGYUN 1C DEB SSO 2024-11-11 23:24:02 0.0004464788 166.0 (m) DEBRIS

Associated space launch

Haiyang is a series of Chinese marine remote sensing satellites. Haiyang 2B is a follow up to Haiyang 2A satellite. It is intended for monitoring the dynamic ocean environnement with microwave sensors to detect sea surface wind field, sea surface height and sea surface temperature.

CZ-4B DEB was lifted into orbit during the mission ‘Long March 4B | Haiyang 2B’, on board a Long March 4B space rocket.

The launch took place on Oct. 24, 2018, 10:57 p.m. from Launch Complex 9.

For more information about the launch, click the button.

Launch to space Long March 4B | Haiyang 2B
Long March 4B | Haiyang 2B

Agency: N/A

Status: Launch Successful

Launch date: Oct. 24, 2018, 10:57 p.m. UTC

Rocket: Long March 4B

Launch pad: Launch Complex 9

Location: Taiyuan Satellite Launch Center, People's Republic of China

...

Latest news about this satellite

There are no fresh news available about this satellite. Check back as we update our databases every day.


Newsletter sign-up

Weekly statistics, charts and insights to help you stay on top of the space industry.